owner,sensor,date,latitude,longitude,vertical_datum,wind_speed,wind_to_direction,wind_speed_of_gust,qcFlag 
DISL,ioos:station:DISL:CATA:1,2015-03-01T00:00:00Z,30.3085,-88.1395,0.0,4.84,134.4,-9999.0,'1111122,1111122,1111122' 
DISL,ioos:station:DISL:CATA:1,2015-03-01T00:30:00Z,30.3085,-88.1395,0.0,4.24,131.5,-9999.0,'1111122,1111122,1111122' 
DISL,ioos:station:DISL:CATA:1,2015-03-01T01:00:00Z,30.3085,-88.1395,0.0,4.06,133.3,-9999.0,'1111122,1111122,1111122' 
DISL,ioos:station:DISL:CATA:1,2015-03-01T01:30:00Z,30.3085,-88.1395,0.0,3.78,140.0,-9999.0,'1111122,1111122,1111122' 
DISL,ioos:station:DISL:CATA:1,2015-03-01T02:00:00Z,30.3085,-88.1395,0.0,3.4,130.2,-9999.0,'1111122,1111122,1111122' 
DISL,ioos:station:DISL:CATA:1,2015-03-01T02:30:00Z,30.3085,-88.1395,0.0,4.2,121.7,-9999.0,'1111122,1111122,1111122' 
DISL,ioos:station:DISL:CATA:1,2015-03-01T03:00:00Z,30.3085,-88.1395,0.0,3.73,114.2,-9999.0,'1111122,1111122,1111122' 
DISL,ioos:station:DISL:CATA:1,2015-03-01T03:30:00Z,30.3085,-88.1395,0.0,3.59,89.1,-9999.0,'1111122,1111122,1111122' 
DISL,ioos:station:DISL:CATA:1,2015-03-01T04:00:00Z,30.3085,-88.1395,0.0,4.11,81.5,-9999.0,'1111122,1111122,1111122' 
DISL,ioos:station:DISL:CATA:1,2015-03-01T04:30:00Z,30.3085,-88.1395,0.0,6.3,77.78,-9999.0,'1111122,1111122,1111122' 
DISL,ioos:station:DISL:CATA:1,2015-03-01T05:00:00Z,30.3085,-88.1395,0.0,4.84,96.8,-9999.0,'1111122,1111122,1111122' 
DISL,ioos:station:DISL:CATA:1,2015-03-01T05:30:00Z,30.3085,-88.1395,0.0,6.12,96.3,-9999.0,'1111122,1111122,1111122' 
DISL,ioos:station:DISL:CATA:1,2015-03-01T06:00:00Z,30.3085,-88.1395,0.0,5.15,82.3,-9999.0,'1111122,1111122,1111122' 
DISL,ioos:station:DISL:CATA:1,2015-03-01T06:30:00Z,30.3085,-88.1395,0.0,6.25,92.7,-9999.0,'1111122,1111122,1111122' 
DISL,ioos:station:DISL:CATA:1,2015-03-01T07:00:00Z,30.3085,-88.1395,0.0,5.08,87.3,-9999.0,'1111122,1111122,1111122' 
DISL,ioos:station:DISL:CATA:1,2015-03-01T07:30:00Z,30.3085,-88.1395,0.0,5.69,77.4,-9999.0,'1111122,1111122,1111122' 
DISL,ioos:station:DISL:CATA:1,2015-03-01T08:00:00Z,30.3085,-88.1395,0.0,6.16,76.35,-9999.0,'1111122,1111122,1111122' 
DISL,ioos:station:DISL:CATA:1,2015-03-01T08:30:00Z,30.3085,-88.1395,0.0,5.49,77.48,-9999.0,'1111122,1111122,1111122' 
DISL,ioos:station:DISL:CATA:1,2015-03-01T09:00:00Z,30.3085,-88.1395,0.0,5.58,68.53,-9999.0,'1111122,1111122,1111122' 
DISL,ioos:station:DISL:CATA:1,2015-03-01T09:30:00Z,30.3085,-88.1395,0.0,5.45,74.46,-9999.0,'1111122,1111122,1111122' 
DISL,ioos:station:DISL:CATA:1,2015-03-01T10:00:00Z,30.3085,-88.1395,0.0,5.95,77.89,-9999.0,'1111122,1111122,1111122' 
DISL,ioos:station:DISL:CATA:1,2015-03-01T10:30:00Z,30.3085,-88.1395,0.0,6.11,88.1,-9999.0,'1111122,1111122,1111122' 
DISL,ioos:station:DISL:CATA:1,2015-03-01T11:00:00Z,30.3085,-88.1395,0.0,6.47,87.7,-9999.0,'1111122,1111122,1111122' 
DISL,ioos:station:DISL:CATA:1,2015-03-01T11:30:00Z,30.3085,-88.1395,0.0,6.26,80.5,-9999.0,'1111122,1111122,1111122' 
DISL,ioos:station:DISL:CATA:1,2015-03-01T12:00:00Z,30.3085,-88.1395,0.0,7.0,82.5,-9999.0,'1111122,1111122,1111122' 
DISL,ioos:station:DISL:CATA:1,2015-03-01T12:30:00Z,30.3085,-88.1395,0.0,6.73,76.77,-9999.0,'1111122,1111122,1111122' 
DISL,ioos:station:DISL:CATA:1,2015-03-01T13:00:00Z,30.3085,-88.1395,0.0,4.73,54.29,-9999.0,'1111122,1111122,1111122' 
DISL,ioos:station:DISL:CATA:1,2015-03-01T13:30:00Z,30.3085,-88.1395,0.0,5.17,66.44,-9999.0,'1111122,1111122,1111122' 
DISL,ioos:station:DISL:CATA:1,2015-03-01T14:00:00Z,30.3085,-88.1395,0.0,5.29,73.7,-9999.0,'1111122,1111122,1111122' 
DISL,ioos:station:DISL:CATA:1,2015-03-01T14:30:00Z,30.3085,-88.1395,0.0,5.35,61.9,-9999.0,'1111122,1111122,1111122' 
DISL,ioos:station:DISL:CATA:1,2015-03-01T15:00:00Z,30.3085,-88.1395,0.0,5.31,72.09,-9999.0,'1111122,1111122,1111122' 
DISL,ioos:station:DISL:CATA:1,2015-03-01T15:30:00Z,30.3085,-88.1395,0.0,5.42,78.85,-9999.0,'1111122,1111122,1111122' 
DISL,ioos:station:DISL:CATA:1,2015-03-01T16:00:00Z,30.3085,-88.1395,0.0,4.76,63.95,-9999.0,'1111122,1111122,1111122' 
DISL,ioos:station:DISL:CATA:1,2015-03-01T16:30:00Z,30.3085,-88.1395,0.0,4.77,50.24,-9999.0,'1111122,1111122,1111122' 
DISL,ioos:station:DISL:CATA:1,2015-03-01T17:00:00Z,30.3085,-88.1395,0.0,5.18,54.92,-9999.0,'1111122,1111122,1111122' 
DISL,ioos:station:DISL:CATA:1,2015-03-01T17:30:00Z,30.3085,-88.1395,0.0,5.13,48.05,-9999.0,'1111122,1111122,1111122' 
DISL,ioos:station:DISL:CATA:1,2015-03-01T18:00:00Z,30.3085,-88.1395,0.0,4.31,45.33,-9999.0,'1111122,1111122,1111122' 
DISL,ioos:station:DISL:CATA:1,2015-03-01T18:30:00Z,30.3085,-88.1395,0.0,4.25,47.0,-9999.0,'1111122,1111122,1111122' 
DISL,ioos:station:DISL:CATA:1,2015-03-01T19:00:00Z,30.3085,-88.1395,0.0,4.33,35.17,-9999.0,'1111122,1111122,1111122' 
DISL,ioos:station:DISL:CATA:1,2015-03-01T19:30:00Z,30.3085,-88.1395,0.0,3.56,49.12,-9999.0,'1111122,1111122,1111122' 
DISL,ioos:station:DISL:CATA:1,2015-03-01T20:00:00Z,30.3085,-88.1395,0.0,3.9,45.05,-9999.0,'1111122,1111122,1111122' 
DISL,ioos:station:DISL:CATA:1,2015-03-01T20:30:00Z,30.3085,-88.1395,0.0,5.06,41.0,-9999.0,'1111122,1111122,1111122' 
DISL,ioos:station:DISL:CATA:1,2015-03-01T21:00:00Z,30.3085,-88.1395,0.0,4.93,40.35,-9999.0,'1111122,1111122,1111122' 
DISL,ioos:station:DISL:CATA:1,2015-03-01T21:30:00Z,30.3085,-88.1395,0.0,4.5,41.9,-9999.0,'1111122,1111122,1111122' 
DISL,ioos:station:DISL:CATA:1,2015-03-01T22:00:00Z,30.3085,-88.1395,0.0,4.96,43.84,-9999.0,'1111122,1111122,1111122' 
DISL,ioos:station:DISL:CATA:1,2015-03-01T22:30:00Z,30.3085,-88.1395,0.0,4.15,50.05,-9999.0,'1111122,1111122,1111122' 
DISL,ioos:station:DISL:CATA:1,2015-03-01T23:00:00Z,30.3085,-88.1395,0.0,3.19,58.72,-9999.0,'1111122,1111122,1111122' 
DISL,ioos:station:DISL:CATA:1,2015-03-01T23:30:00Z,30.3085,-88.1395,0.0,3.0,51.93,-9999.0,'1111122,1111122,1111122' 
DISL,ioos:station:DISL:CATA:1,2015-03-02T00:00:00Z,30.3085,-88.1395,0.0,3.06,62.11,-9999.0,'1111122,1111122,1111122' 
DISL,ioos:station:DISL:CATA:1,2015-03-02T00:30:00Z,30.3085,-88.1395,0.0,3.22,65.87,-9999.0,'1111122,1111122,1111122' 
DISL,ioos:station:DISL:CATA:1,2015-03-02T01:00:00Z,30.3085,-88.1395,0.0,2.94,54.19,-9999.0,'1111122,1111122,1111122' 
DISL,ioos:station:DISL:CATA:1,2015-03-02T01:30:00Z,30.3085,-88.1395,0.0,3.49,48.45,-9999.0,'1111122,1111122,1111122' 
DISL,ioos:station:DISL:CATA:1,2015-03-02T02:00:00Z,30.3085,-88.1395,0.0,3.89,49.69,-9999.0,'1111122,1111122,1111122' 
DISL,ioos:station:DISL:CATA:1,2015-03-02T02:30:00Z,30.3085,-88.1395,0.0,4.54,43.2,-9999.0,'1111122,1111122,1111122' 
DISL,ioos:station:DISL:CATA:1,2015-03-02T03:00:00Z,30.3085,-88.1395,0.0,4.29,51.2,-9999.0,'1111122,1111122,1111122' 
DISL,ioos:station:DISL:CATA:1,2015-03-02T03:30:00Z,30.3085,-88.1395,0.0,4.24,56.07,-9999.0,'1111122,1111122,1111122' 
DISL,ioos:station:DISL:CATA:1,2015-03-02T04:00:00Z,30.3085,-88.1395,0.0,4.06,53.03,-9999.0,'1111122,1111122,1111122' 
DISL,ioos:station:DISL:CATA:1,2015-03-02T04:30:00Z,30.3085,-88.1395,0.0,4.49,40.99,-9999.0,'1111122,1111122,1111122' 
DISL,ioos:station:DISL:CATA:1,2015-03-02T05:00:00Z,30.3085,-88.1395,0.0,5.83,40.53,-9999.0,'1111122,1111122,1111122' 
DISL,ioos:station:DISL:CATA:1,2015-03-02T05:30:00Z,30.3085,-88.1395,0.0,6.0,37.93,-9999.0,'1111122,1111122,1111122' 
DISL,ioos:station:DISL:CATA:1,2015-03-02T06:00:00Z,30.3085,-88.1395,0.0,6.03,41.88,-9999.0,'1111122,1111122,1111122' 
DISL,ioos:station:DISL:CATA:1,2015-03-02T06:30:00Z,30.3085,-88.1395,0.0,4.06,49.65,-9999.0,'1111122,1111122,1111122' 
DISL,ioos:station:DISL:CATA:1,2015-03-02T07:00:00Z,30.3085,-88.1395,0.0,3.73,64.67,-9999.0,'1111122,1111122,1111122' 
DISL,ioos:station:DISL:CATA:1,2015-03-02T07:30:00Z,30.3085,-88.1395,0.0,2.92,66.69,-9999.0,'1111122,1111122,1111122' 
DISL,ioos:station:DISL:CATA:1,2015-03-02T08:00:00Z,30.3085,-88.1395,0.0,2.57,85.7,-9999.0,'1111122,1111122,1111122' 
DISL,ioos:station:DISL:CATA:1,2015-03-02T08:30:00Z,30.3085,-88.1395,0.0,3.81,118.6,-9999.0,'1111122,1111122,1111122' 
DISL,ioos:station:DISL:CATA:1,2015-03-02T09:00:00Z,30.3085,-88.1395,0.0,4.66,130.4,-9999.0,'1111122,1111122,1111122' 
DISL,ioos:station:DISL:CATA:1,2015-03-02T09:30:00Z,30.3085,-88.1395,0.0,5.76,125.0,-9999.0,'1111122,1111122,1111122' 
DISL,ioos:station:DISL:CATA:1,2015-03-02T10:00:00Z,30.3085,-88.1395,0.0,5.12,133.2,-9999.0,'1111122,1111122,1111122' 
DISL,ioos:station:DISL:CATA:1,2015-03-02T10:30:00Z,30.3085,-88.1395,0.0,4.11,130.1,-9999.0,'1111122,1111122,1111122' 
DISL,ioos:station:DISL:CATA:1,2015-03-02T11:00:00Z,30.3085,-88.1395,0.0,3.27,102.0,-9999.0,'1111122,1111122,1111122' 
DISL,ioos:station:DISL:CATA:1,2015-03-02T11:30:00Z,30.3085,-88.1395,0.0,0.98,58.76,-9999.0,'1111122,1111122,1111122' 
DISL,ioos:station:DISL:CATA:1,2015-03-02T12:00:00Z,30.3085,-88.1395,0.0,2.16,57.97,-9999.0,'1111122,1111122,1111122' 
DISL,ioos:station:DISL:CATA:1,2015-03-02T12:30:00Z,30.3085,-88.1395,0.0,3.39,48.24,-9999.0,'1111122,1111122,1111122' 
DISL,ioos:station:DISL:CATA:1,2015-03-02T13:00:00Z,30.3085,-88.1395,0.0,2.59,43.23,-9999.0,'1111122,1111122,1111122' 
DISL,ioos:station:DISL:CATA:1,2015-03-02T13:30:00Z,30.3085,-88.1395,0.0,3.04,60.4,-9999.0,'1111122,1111122,1111122' 
DISL,ioos:station:DISL:CATA:1,2015-03-02T14:00:00Z,30.3085,-88.1395,0.0,3.75,51.74,-9999.0,'1111122,1111122,1111122' 
DISL,ioos:station:DISL:CATA:1,2015-03-02T14:30:00Z,30.3085,-88.1395,0.0,4.26,42.94,-9999.0,'1111122,1111122,1111122' 
DISL,ioos:station:DISL:CATA:1,2015-03-02T15:00:00Z,30.3085,-88.1395,0.0,3.47,53.33,-9999.0,'1111122,1111122,1111122' 
DISL,ioos:station:DISL:CATA:1,2015-03-02T15:30:00Z,30.3085,-88.1395,0.0,3.3,61.46,-9999.0,'1111122,1111122,1111122' 
DISL,ioos:station:DISL:CATA:1,2015-03-02T16:00:00Z,30.3085,-88.1395,0.0,3.15,47.81,-9999.0,'1111122,1111122,1111122' 
DISL,ioos:station:DISL:CATA:1,2015-03-02T16:30:00Z,30.3085,-88.1395,0.0,3.62,48.26,-9999.0,'1111122,1111122,1111122' 
DISL,ioos:station:DISL:CATA:1,2015-03-02T17:00:00Z,30.3085,-88.1395,0.0,3.37,47.31,-9999.0,'1111122,1111122,1111122' 
DISL,ioos:station:DISL:CATA:1,2015-03-02T17:30:00Z,30.3085,-88.1395,0.0,3.08,59.67,-9999.0,'1111122,1111122,1111122' 
DISL,ioos:station:DISL:CATA:1,2015-03-02T18:00:00Z,30.3085,-88.1395,0.0,2.51,79.57,-9999.0,'1111122,1111122,1111122' 
DISL,ioos:station:DISL:CATA:1,2015-03-02T18:30:00Z,30.3085,-88.1395,0.0,1.86,96.6,-9999.0,'1111122,1111122,1111122' 
DISL,ioos:station:DISL:CATA:1,2015-03-02T19:00:00Z,30.3085,-88.1395,0.0,2.22,105.0,-9999.0,'1111122,1111122,1111122' 
DISL,ioos:station:DISL:CATA:1,2015-03-02T19:30:00Z,30.3085,-88.1395,0.0,2.82,87.2,-9999.0,'1111122,1111122,1111122' 
DISL,ioos:station:DISL:CATA:1,2015-03-02T20:00:00Z,30.3085,-88.1395,0.0,2.97,83.0,-9999.0,'1111122,1111122,1111122' 
DISL,ioos:station:DISL:CATA:1,2015-03-02T20:30:00Z,30.3085,-88.1395,0.0,2.97,95.3,-9999.0,'1111122,1111122,1111122' 
DISL,ioos:station:DISL:CATA:1,2015-03-02T21:00:00Z,30.3085,-88.1395,0.0,2.7,92.7,-9999.0,'1111122,1111122,1111122' 
DISL,ioos:station:DISL:CATA:1,2015-03-02T21:30:00Z,30.3085,-88.1395,0.0,3.82,135.9,-9999.0,'1111122,1111122,1111122' 
DISL,ioos:station:DISL:CATA:1,2015-03-02T22:00:00Z,30.3085,-88.1395,0.0,3.45,119.4,-9999.0,'1111122,1111122,1111122' 
DISL,ioos:station:DISL:CATA:1,2015-03-02T22:30:00Z,30.3085,-88.1395,0.0,2.64,128.9,-9999.0,'1111122,1111122,1111122' 
DISL,ioos:station:DISL:CATA:1,2015-03-02T23:00:00Z,30.3085,-88.1395,0.0,3.42,127.5,-9999.0,'1111122,1111122,1111122' 
DISL,ioos:station:DISL:CATA:1,2015-03-02T23:30:00Z,30.3085,-88.1395,0.0,2.33,105.8,-9999.0,'1111122,1111122,1111122' 
DISL,ioos:station:DISL:CATA:1,2015-03-03T00:00:00Z,30.3085,-88.1395,0.0,2.84,123.0,-9999.0,'1111122,1111122,1111122' 
DISL,ioos:station:DISL:CATA:1,2015-03-03T00:30:00Z,30.3085,-88.1395,0.0,2.65,124.3,-9999.0,'1111122,1111122,1111122' 
DISL,ioos:station:DISL:CATA:1,2015-03-03T01:00:00Z,30.3085,-88.1395,0.0,2.64,93.9,-9999.0,'1111122,1111122,1111122' 
DISL,ioos:station:DISL:CATA:1,2015-03-03T01:30:00Z,30.3085,-88.1395,0.0,2.92,114.7,-9999.0,'1111122,1111122,1111122' 
DISL,ioos:station:DISL:CATA:1,2015-03-03T02:00:00Z,30.3085,-88.1395,0.0,2.61,112.7,-9999.0,'1111122,1111122,1111122' 
DISL,ioos:station:DISL:CATA:1,2015-03-03T02:30:00Z,30.3085,-88.1395,0.0,2.24,76.07,-9999.0,'1111122,1111122,1111122' 
DISL,ioos:station:DISL:CATA:1,2015-03-03T03:00:00Z,30.3085,-88.1395,0.0,1.76,89.8,-9999.0,'1111122,1111122,1111122' 
DISL,ioos:station:DISL:CATA:1,2015-03-03T03:30:00Z,30.3085,-88.1395,0.0,2.35,101.5,-9999.0,'1111122,1111122,1111122' 
DISL,ioos:station:DISL:CATA:1,2015-03-03T04:00:00Z,30.3085,-88.1395,0.0,2.85,113.9,-9999.0,'1111122,1111122,1111122' 
DISL,ioos:station:DISL:CATA:1,2015-03-03T04:30:00Z,30.3085,-88.1395,0.0,3.58,125.5,-9999.0,'1111122,1111122,1111122' 
DISL,ioos:station:DISL:CATA:1,2015-03-03T05:00:00Z,30.3085,-88.1395,0.0,2.59,124.0,-9999.0,'1111122,1111122,1111122' 
DISL,ioos:station:DISL:CATA:1,2015-03-03T05:30:00Z,30.3085,-88.1395,0.0,1.82,104.3,-9999.0,'1111122,1111122,1111122' 
DISL,ioos:station:DISL:CATA:1,2015-03-03T06:00:00Z,30.3085,-88.1395,0.0,1.85,83.2,-9999.0,'1111122,1111122,1111122' 
DISL,ioos:station:DISL:CATA:1,2015-03-03T06:30:00Z,30.3085,-88.1395,0.0,2.7,117.9,-9999.0,'1111122,1111122,1111122' 
DISL,ioos:station:DISL:CATA:1,2015-03-03T07:00:00Z,30.3085,-88.1395,0.0,2.31,98.5,-9999.0,'1111122,1111122,1111122' 
DISL,ioos:station:DISL:CATA:1,2015-03-03T07:30:00Z,30.3085,-88.1395,0.0,2.49,107.9,-9999.0,'1111122,1111122,1111122' 
DISL,ioos:station:DISL:CATA:1,2015-03-03T08:00:00Z,30.3085,-88.1395,0.0,2.48,107.7,-9999.0,'1111122,1111122,1111122' 
DISL,ioos:station:DISL:CATA:1,2015-03-03T08:30:00Z,30.3085,-88.1395,0.0,2.04,82.7,-9999.0,'1111122,1111122,1111122' 
DISL,ioos:station:DISL:CATA:1,2015-03-03T09:00:00Z,30.3085,-88.1395,0.0,2.37,93.6,-9999.0,'1111122,1111122,1111122' 
DISL,ioos:station:DISL:CATA:1,2015-03-03T09:30:00Z,30.3085,-88.1395,0.0,2.41,116.6,-9999.0,'1111122,1111122,1111122' 
DISL,ioos:station:DISL:CATA:1,2015-03-03T10:00:00Z,30.3085,-88.1395,0.0,3.03,147.3,-9999.0,'1111122,1111122,1111122' 
DISL,ioos:station:DISL:CATA:1,2015-03-03T10:30:00Z,30.3085,-88.1395,0.0,3.19,134.2,-9999.0,'1111122,1111122,1111122' 
DISL,ioos:station:DISL:CATA:1,2015-03-03T11:00:00Z,30.3085,-88.1395,0.0,2.77,113.2,-9999.0,'1111122,1111122,1111122' 
DISL,ioos:station:DISL:CATA:1,2015-03-03T11:30:00Z,30.3085,-88.1395,0.0,2.4,106.3,-9999.0,'1111122,1111122,1111122' 
DISL,ioos:station:DISL:CATA:1,2015-03-03T12:00:00Z,30.3085,-88.1395,0.0,1.67,96.0,-9999.0,'1111122,1111122,1111122' 
DISL,ioos:station:DISL:CATA:1,2015-03-03T12:30:00Z,30.3085,-88.1395,0.0,2.13,83.3,-9999.0,'1111122,1111122,1111122' 
DISL,ioos:station:DISL:CATA:1,2015-03-03T13:00:00Z,30.3085,-88.1395,0.0,1.64,64.7,-9999.0,'1111122,1111122,1111122' 
DISL,ioos:station:DISL:CATA:1,2015-03-03T13:30:00Z,30.3085,-88.1395,0.0,1.79,78.17,-9999.0,'1111122,1111122,1111122' 
DISL,ioos:station:DISL:CATA:1,2015-03-03T14:00:00Z,30.3085,-88.1395,0.0,2.06,94.0,-9999.0,'1111122,1111122,1111122' 
DISL,ioos:station:DISL:CATA:1,2015-03-03T14:30:00Z,30.3085,-88.1395,0.0,2.06,97.2,-9999.0,'1111122,1111122,1111122' 
DISL,ioos:station:DISL:CATA:1,2015-03-03T15:00:00Z,30.3085,-88.1395,0.0,2.07,77.62,-9999.0,'1111122,1111122,1111122' 
DISL,ioos:station:DISL:CATA:1,2015-03-03T15:30:00Z,30.3085,-88.1395,0.0,2.17,90.6,-9999.0,'1111122,1111122,1111122' 
DISL,ioos:station:DISL:CATA:1,2015-03-03T16:00:00Z,30.3085,-88.1395,0.0,1.85,101.3,-9999.0,'1111122,1111122,1111122' 
DISL,ioos:station:DISL:CATA:1,2015-03-03T16:30:00Z,30.3085,-88.1395,0.0,2.31,108.0,-9999.0,'1111122,1111122,1111122' 
DISL,ioos:station:DISL:CATA:1,2015-03-03T17:00:00Z,30.3085,-88.1395,0.0,3.03,119.6,-9999.0,'1111122,1111122,1111122' 
DISL,ioos:station:DISL:CATA:1,2015-03-03T17:30:00Z,30.3085,-88.1395,0.0,2.72,110.1,-9999.0,'1111122,1111122,1111122' 
DISL,ioos:station:DISL:CATA:1,2015-03-03T18:00:00Z,30.3085,-88.1395,0.0,2.31,117.7,-9999.0,'1111122,1111122,1111122' 
DISL,ioos:station:DISL:CATA:1,2015-03-03T18:30:00Z,30.3085,-88.1395,0.0,3.01,126.8,-9999.0,'1111122,1111122,1111122' 
DISL,ioos:station:DISL:CATA:1,2015-03-03T19:00:00Z,30.3085,-88.1395,0.0,4.08,139.2,-9999.0,'1111122,1111122,1111122' 
DISL,ioos:station:DISL:CATA:1,2015-03-03T19:30:00Z,30.3085,-88.1395,0.0,3.67,132.5,-9999.0,'1111122,1111122,1111122' 
DISL,ioos:station:DISL:CATA:1,2015-03-03T20:00:00Z,30.3085,-88.1395,0.0,3.87,135.9,-9999.0,'1111122,1111122,1111122' 
DISL,ioos:station:DISL:CATA:1,2015-03-03T20:30:00Z,30.3085,-88.1395,0.0,5.02,135.0,-9999.0,'1111122,1111122,1111122' 
DISL,ioos:station:DISL:CATA:1,2015-03-03T21:00:00Z,30.3085,-88.1395,0.0,5.54,137.9,-9999.0,'1111122,1111122,1111122' 
DISL,ioos:station:DISL:CATA:1,2015-03-03T21:30:00Z,30.3085,-88.1395,0.0,6.21,136.2,-9999.0,'1111122,1111122,1111122' 
DISL,ioos:station:DISL:CATA:1,2015-03-03T22:00:00Z,30.3085,-88.1395,0.0,5.94,134.4,-9999.0,'1111122,1111122,1111122' 
DISL,ioos:station:DISL:CATA:1,2015-03-03T22:30:00Z,30.3085,-88.1395,0.0,6.88,139.3,-9999.0,'1111122,1111122,1111122' 
DISL,ioos:station:DISL:CATA:1,2015-03-03T23:00:00Z,30.3085,-88.1395,0.0,5.34,136.8,-9999.0,'1111122,1111122,1111122' 
DISL,ioos:station:DISL:CATA:1,2015-03-03T23:30:00Z,30.3085,-88.1395,0.0,4.57,127.5,-9999.0,'1111122,1111122,1111122' 
DISL,ioos:station:DISL:CATA:1,2015-03-04T00:00:00Z,30.3085,-88.1395,0.0,4.15,130.5,-9999.0,'1111122,1111122,1111122' 
DISL,ioos:station:DISL:CATA:1,2015-03-04T00:30:00Z,30.3085,-88.1395,0.0,4.35,133.5,-9999.0,'1111122,1111122,1111122' 
DISL,ioos:station:DISL:CATA:1,2015-03-04T01:00:00Z,30.3085,-88.1395,0.0,4.06,133.1,-9999.0,'1111122,1111122,1111122' 
DISL,ioos:station:DISL:CATA:1,2015-03-04T01:30:00Z,30.3085,-88.1395,0.0,3.33,133.3,-9999.0,'1111122,1111122,1111122' 
DISL,ioos:station:DISL:CATA:1,2015-03-04T02:00:00Z,30.3085,-88.1395,0.0,3.64,133.2,-9999.0,'1111122,1111122,1111122' 
DISL,ioos:station:DISL:CATA:1,2015-03-04T02:30:00Z,30.3085,-88.1395,0.0,5.63,131.9,-9999.0,'1111122,1111122,1111122' 
DISL,ioos:station:DISL:CATA:1,2015-03-04T03:00:00Z,30.3085,-88.1395,0.0,5.29,133.5,-9999.0,'1111122,1111122,1111122' 
DISL,ioos:station:DISL:CATA:1,2015-03-04T03:30:00Z,30.3085,-88.1395,0.0,5.42,132.1,-9999.0,'1111122,1111122,1111122' 
DISL,ioos:station:DISL:CATA:1,2015-03-04T04:00:00Z,30.3085,-88.1395,0.0,4.88,129.3,-9999.0,'1111122,1111122,1111122' 
DISL,ioos:station:DISL:CATA:1,2015-03-04T04:30:00Z,30.3085,-88.1395,0.0,4.96,131.7,-9999.0,'1111122,1111122,1111122' 
DISL,ioos:station:DISL:CATA:1,2015-03-04T05:00:00Z,30.3085,-88.1395,0.0,4.6,136.6,-9999.0,'1111122,1111122,1111122' 
DISL,ioos:station:DISL:CATA:1,2015-03-04T05:30:00Z,30.3085,-88.1395,0.0,5.79,142.2,-9999.0,'1111122,1111122,1111122' 
DISL,ioos:station:DISL:CATA:1,2015-03-04T06:00:00Z,30.3085,-88.1395,0.0,5.46,142.5,-9999.0,'1111122,1111122,1111122' 
DISL,ioos:station:DISL:CATA:1,2015-03-04T06:30:00Z,30.3085,-88.1395,0.0,4.74,136.8,-9999.0,'1111122,1111122,1111122' 
DISL,ioos:station:DISL:CATA:1,2015-03-04T07:00:00Z,30.3085,-88.1395,0.0,4.38,131.5,-9999.0,'1111122,1111122,1111122' 
DISL,ioos:station:DISL:CATA:1,2015-03-04T07:30:00Z,30.3085,-88.1395,0.0,3.32,124.6,-9999.0,'1111122,1111122,1111122' 
DISL,ioos:station:DISL:CATA:1,2015-03-04T08:00:00Z,30.3085,-88.1395,0.0,3.71,131.0,-9999.0,'1111122,1111122,1111122' 
DISL,ioos:station:DISL:CATA:1,2015-03-04T08:30:00Z,30.3085,-88.1395,0.0,3.46,130.2,-9999.0,'1111122,1111122,1111122' 
DISL,ioos:station:DISL:CATA:1,2015-03-04T09:00:00Z,30.3085,-88.1395,0.0,4.12,135.8,-9999.0,'1111122,1111122,1111122' 
DISL,ioos:station:DISL:CATA:1,2015-03-04T09:30:00Z,30.3085,-88.1395,0.0,4.28,134.3,-9999.0,'1111122,1111122,1111122' 
DISL,ioos:station:DISL:CATA:1,2015-03-04T10:00:00Z,30.3085,-88.1395,0.0,3.81,133.3,-9999.0,'1111122,1111122,1111122' 
DISL,ioos:station:DISL:CATA:1,2015-03-04T10:30:00Z,30.3085,-88.1395,0.0,4.0,129.9,-9999.0,'1111122,1111122,1111122' 
DISL,ioos:station:DISL:CATA:1,2015-03-04T11:00:00Z,30.3085,-88.1395,0.0,4.64,132.4,-9999.0,'1111122,1111122,1111122' 
DISL,ioos:station:DISL:CATA:1,2015-03-04T11:30:00Z,30.3085,-88.1395,0.0,4.8,130.6,-9999.0,'1111122,1111122,1111122' 
DISL,ioos:station:DISL:CATA:1,2015-03-04T12:00:00Z,30.3085,-88.1395,0.0,3.48,131.1,-9999.0,'1111122,1111122,1111122' 
DISL,ioos:station:DISL:CATA:1,2015-03-04T12:30:00Z,30.3085,-88.1395,0.0,3.02,130.0,-9999.0,'1111122,1111122,1111122' 
DISL,ioos:station:DISL:CATA:1,2015-03-04T13:00:00Z,30.3085,-88.1395,0.0,2.7,106.4,-9999.0,'1111122,1111122,1111122' 
DISL,ioos:station:DISL:CATA:1,2015-03-04T13:30:00Z,30.3085,-88.1395,0.0,1.97,98.9,-9999.0,'1111122,1111122,1111122' 
DISL,ioos:station:DISL:CATA:1,2015-03-04T14:00:00Z,30.3085,-88.1395,0.0,2.43,115.8,-9999.0,'1111122,1111122,1111122' 
DISL,ioos:station:DISL:CATA:1,2015-03-04T14:30:00Z,30.3085,-88.1395,0.0,4.57,148.5,-9999.0,'1111122,1111122,1111122' 
DISL,ioos:station:DISL:CATA:1,2015-03-04T15:00:00Z,30.3085,-88.1395,0.0,6.9,158.0,-9999.0,'1111122,1111122,1111122' 
DISL,ioos:station:DISL:CATA:1,2015-03-04T15:30:00Z,30.3085,-88.1395,0.0,7.2,159.9,-9999.0,'1111122,1111122,1111122' 
DISL,ioos:station:DISL:CATA:1,2015-03-04T16:00:00Z,30.3085,-88.1395,0.0,6.75,167.0,-9999.0,'1111122,1111122,1111122' 
DISL,ioos:station:DISL:CATA:1,2015-03-04T16:30:00Z,30.3085,-88.1395,0.0,8.28,168.7,-9999.0,'1111122,1111122,1111122' 
DISL,ioos:station:DISL:CATA:1,2015-03-04T17:00:00Z,30.3085,-88.1395,0.0,8.88,170.3,-9999.0,'1111122,1111122,1111122' 
DISL,ioos:station:DISL:CATA:1,2015-03-04T17:30:00Z,30.3085,-88.1395,0.0,8.7,170.7,-9999.0,'1111122,1111122,1111122' 
DISL,ioos:station:DISL:CATA:1,2015-03-04T18:00:00Z,30.3085,-88.1395,0.0,9.98,162.9,-9999.0,'1111122,1111122,1111122' 
DISL,ioos:station:DISL:CATA:1,2015-03-04T18:30:00Z,30.3085,-88.1395,0.0,9.59,168.0,-9999.0,'1111122,1111122,1111122' 
DISL,ioos:station:DISL:CATA:1,2015-03-04T19:00:00Z,30.3085,-88.1395,0.0,8.83,167.3,-9999.0,'1111122,1111122,1111122' 
DISL,ioos:station:DISL:CATA:1,2015-03-04T19:30:00Z,30.3085,-88.1395,0.0,8.39,167.5,-9999.0,'1111122,1111122,1111122' 
DISL,ioos:station:DISL:CATA:1,2015-03-04T20:00:00Z,30.3085,-88.1395,0.0,8.58,167.7,-9999.0,'1111122,1111122,1111122' 
DISL,ioos:station:DISL:CATA:1,2015-03-04T20:30:00Z,30.3085,-88.1395,0.0,8.12,166.2,-9999.0,'1111122,1111122,1111122' 
DISL,ioos:station:DISL:CATA:1,2015-03-04T21:00:00Z,30.3085,-88.1395,0.0,8.56,166.2,-9999.0,'1111122,1111122,1111122' 
DISL,ioos:station:DISL:CATA:1,2015-03-04T21:30:00Z,30.3085,-88.1395,0.0,8.63,162.7,-9999.0,'1111122,1111122,1111122' 
DISL,ioos:station:DISL:CATA:1,2015-03-04T22:00:00Z,30.3085,-88.1395,0.0,8.46,169.6,-9999.0,'1111122,1111122,1111122' 
DISL,ioos:station:DISL:CATA:1,2015-03-04T22:30:00Z,30.3085,-88.1395,0.0,8.03,165.3,-9999.0,'1111122,1111122,1111122' 
DISL,ioos:station:DISL:CATA:1,2015-03-04T23:00:00Z,30.3085,-88.1395,0.0,7.56,167.7,-9999.0,'1111122,1111122,1111122' 
DISL,ioos:station:DISL:CATA:1,2015-03-04T23:30:00Z,30.3085,-88.1395,0.0,7.44,166.7,-9999.0,'1111122,1111122,1111122' 
DISL,ioos:station:DISL:CATA:1,2015-03-05T00:00:00Z,30.3085,-88.1395,0.0,7.47,168.2,-9999.0,'1111122,1111122,1111122' 
DISL,ioos:station:DISL:CATA:1,2015-03-05T00:30:00Z,30.3085,-88.1395,0.0,7.8,166.7,-9999.0,'1111122,1111122,1111122' 
DISL,ioos:station:DISL:CATA:1,2015-03-05T01:00:00Z,30.3085,-88.1395,0.0,8.28,167.7,-9999.0,'1111122,1111122,1111122' 
DISL,ioos:station:DISL:CATA:1,2015-03-05T01:30:00Z,30.3085,-88.1395,0.0,8.05,165.6,-9999.0,'1111122,1111122,1111122' 
DISL,ioos:station:DISL:CATA:1,2015-03-05T02:00:00Z,30.3085,-88.1395,0.0,7.49,166.1,-9999.0,'1111122,1111122,1111122' 
DISL,ioos:station:DISL:CATA:1,2015-03-05T02:30:00Z,30.3085,-88.1395,0.0,8.84,165.2,-9999.0,'1111122,1111122,1111122' 
DISL,ioos:station:DISL:CATA:1,2015-03-05T03:00:00Z,30.3085,-88.1395,0.0,8.75,171.2,-9999.0,'1111122,1111122,1111122' 
DISL,ioos:station:DISL:CATA:1,2015-03-05T03:30:00Z,30.3085,-88.1395,0.0,8.07,164.3,-9999.0,'1111122,1111122,1111122' 
DISL,ioos:station:DISL:CATA:1,2015-03-05T04:00:00Z,30.3085,-88.1395,0.0,6.2,211.1,-9999.0,'1111122,1111122,1111122' 
DISL,ioos:station:DISL:CATA:1,2015-03-05T04:30:00Z,30.3085,-88.1395,0.0,6.05,195.6,-9999.0,'1111122,1111122,1111122' 